Regional Weather Roundup
Issued by NWS Grand Forks, ND

Home | Current Version | Previous Version | Text Only | Print | Product List | Glossary On
Versions: 1 2 3 4 5 6 7 8 9 10 11 12 13 14 15 16 17 18 19 20 21 22 23 24 25 26 27 28 29 30 31 32 33 34 35 36 37 38 39 40 41 42 43 44 45 46 47 48 49 50
000
ASUS43 KFGF 211331
RWRFGF
PRAIRIE TO PINES  WEATHER ROUNDUP
NATIONAL WEATHER SERVICE EASTERN NORTH DAKOTA/GRAND FORKS ND
800 AM CDT TUE OCT 21 2014

 **SATELLITE DATA USED TO AUGMENT SKY COVER AT AUTOMATED STATIONS**
 *****  WEATHER ACROSS EASTERN NORTH DAKOTA  *****

CITY           SKY/WX    TMP DP  RH WIND       PRES   REMARKS
GRAND FORKS    CLEAR     37  35  92 SE8       30.03S
GRAND FRKS AFB CLEAR     37  37  99 S8        30.02S
GRAND FRKS NWS   N/A     37 N/A N/A SE6         N/A
DEVILS LAKE    CLEAR     46  36  66 SE14      29.91S
FARGO          CLEAR     44  38  79 SE16      30.03F
WAHPETON ARPT  SUNNY     41  34  75 SE13G18   30.06S
$$

 ***** WEATHER ACROSS CENTRAL AND WESTERN NORTH DAKOTA  *****

CITY           SKY/WX    TMP DP  RH WIND       PRES   REMARKS
BISMARCK       CLEAR     46  36  68 E6        29.84F
MINOT          CLEAR     45  35  68 E6        29.81F
JAMESTOWN      CLEAR     46  38  73 SE14      29.93F
MINOT AFB      CLEAR     37  36  97 SE8       29.81F
GARRISON         N/A     42  37  82 E8        29.81F
WILLISTON      CLEAR     39  35  86 CALM      29.76S
DICKINSON      CLEAR     38  34  85 SE7       29.76F
HETTINGER      CLEAR     37  34  89 E5        29.79F
$$

 *****  OTHER AIRPORT OBSERVATIONS IN OUR AREA  *****

CITY           SKY/WX    TMP DP  RH WIND       PRES   REMARKS
WALHALLA         N/A     37  37 100 SE12      29.98F
GRAFTON AIRPOR FAIR      34  34 100 SE9       30.02S
VALLEY CITY AR FAIR      39  39 100 SE16G22   29.97F
CANDO          FAIR      43  39  87 SE10G17   29.91F
CAVALIER APRT  FAIR      37  36  93 SE9       30.00F
GWINNER        SUNNY     41  37  87 SE13      30.00F
ROLLA          FAIR      39  39 100 S8        29.91F
 ***** THE ABOVE OBSERVATIONS ARE NON NWS ARE NOT QUALITY
       CONTROLLED AND MAY MIS-REPORT RAIN FOR SNOW...
$$

  *****  WEATHER ACROSS NORTHERN MINNESOTA  *****

CITY           SKY/WX    TMP DP  RH WIND       PRES   REMARKS
FLAG ISLAND    CLEAR     43  37  81 SE18      30.11S
WARROAD        CLEAR     37  34  87 SE9       30.10F
ROSEAU         CLEAR     37  34  87 SE5       30.09R
HALLOCK        CLEAR     37  36  93 SE12      30.03S
THF RVR FALLS  CLEAR     36  34  93 SE8       30.07S
BAUDETTE       CLEAR     36  33  89 SE7       30.14S
WASKISH        CLEAR     34  34 100 CALM      30.14R
CROOKSTON      CLEAR     39  37  93 SE13      30.05S
STEPHEN NDAWN    N/A     37  36  93 SE12        N/A
GREENBUSH NDAW   N/A     39  36  87 SE9         N/A
$$
  *****  WEATHER ACROSS CENTRAL AND WEST MINNESOTA  *****

CITY           SKY/WX    TMP DP  RH WIND       PRES   REMARKS
FOSSTON        CLEAR     37  34  87 CALM      30.08S
BEMIDJI        CLEAR     35  34  95 SE8       30.12S
PARK RAPIDS    CLEAR     35  34  96 SE8       30.12S
ELBOW LAKE     FAIR      42  38  84 SE14      30.08S
WADENA         CLEAR     34  34 100 SE8       30.12S
DETROIT LAKES  CLEAR     39  37  93 SE10      30.09S
MOORHEAD       CLEAR     45  43  93 SE14G20   30.05S
FERGUS FALLS   CLEAR     43  36  75 SE15      30.09S
MORRIS MN      CLEAR     41  37  87 SE12      30.08S
STAPLES        PTCLDY    34  34 100 CALM      30.14S
$$
  *****  WEATHER ELSEWHERE ACROSS MINNESOTA  *****

CITY           SKY/WX    TMP DP  RH WIND       PRES   REMARKS
DULUTH         CLOUDY    42  35  76 SE13      30.20R
INTRNTL FALLS  PTCLDY    32  30  92 SE6       30.17S
ELY            CLOUDY    37  32  81 SE5       30.22R
CLOQUET        CLOUDY    43  36  75 E5        30.20S
WHEATON        CLEAR     37  36  93 SE9       30.08F
BRAINERD       PTCLDY    31  31 100 SE3       30.18R FOG
HIBBING        CLOUDY    41  34  76 SE9       30.20R
ALEXANDRIA     CLEAR     38  35  89 SE10      30.13S
SAINT CLOUD    FAIR      38  34  85 E5        30.17R
MINNEAPOLIS    CLEAR     41  37  86 VRB5      30.19R
$$

  *****  WEATHER ACROSS SOUTH DAKOTA  *****

CITY           SKY/WX    TMP DP  RH WIND       PRES   REMARKS
SIOUX FALLS    CLEAR     45  37  73 SE6       30.07F
BROOKINGS      NOT AVBL
WATERTOWN      CLEAR     46  37  71 SE17      30.03F
HURON          CLEAR     51  36  56 SE12      29.97F
SISSETON         N/A     37  36  96 S9        30.04F
ABERDEEN       CLEAR     50  38  63 SE12      29.95F
MITCHELL       CLEAR     49  38  65 SE14      30.01S
PIERRE         CLEAR     51  41  68 SE15      29.86F
MOBRIDGE       CLEAR     53  41  63 SE14      29.82F
RAPID CITY     CLEAR     47  38  71 SE5       29.83F
$$

  *****  SOME WEATHER IN NEARBY STATES *****

CITY           SKY/WX    TMP DP  RH WIND       PRES   REMARKS
GLASGOW MT     CLEAR     45  38  76 E16       29.67F
GREAT FALLS MT MOCLDY    52  36  54 S7        29.66F
CHEYENNE WY    CLOUDY    47  35  63 W5        30.05S
SCOTTSBLUFF NE CLEAR     42  39  89 E7        29.96S
OMAHA NE       CLEAR     39  36  89 NW3       30.12S
DES MOINES IA  CLEAR     46  40  79 E3        30.13R
DAVENPORT IA   CLEAR     38  35  89 NE7       30.16R
CHICAGO IL     MOCLDY    46  39  76 N14       30.12R
EAU CLAIRE WI  CLEAR     36  34  92 NE5       30.20R
LA CROSSE WI   CLEAR     38  36  92 CALM      30.21R
$$

  *****  SOME NATIONAL WEATHER *****

CITY           SKY/WX    TMP DP  RH WIND       PRES   REMARKS
LA GUARDIA NY  PTSUNNY   59  46  62 SE6       29.90S
RALEIGH NC     MOSUNNY   56  50  80 SW5       29.94R
ATLANTA GA     SUNNY     56  49  77 NW6       30.03R
NEW ORLEANS LA MOSUNNY   67  56  67 NE8       30.04R
OKLAHOMA CITY  PTCLDY    60  57  89 S6        30.08R
ALBUQUERQUE NM CLOUDY    54  46  74 N7        30.15S
SALT LAKE CITY MOCLDY    64  39  39 S15       29.88R
LOS ANGELES CA PTCLDY    64  61  90 CALM      29.89S
BOISE ID       CLOUDY    49  44  83 S9        29.93R
SEATTLE WA     MOCLDY    54  49  83 S10       29.85R
$$

*** WEATHER ACROSS MANITOBA...SASKATCHEWAN AND ONTARIO ***
                ***ONTARIO***

CITY           SKY/WX    TMP DP  RH WIND       PRES   REMARKS
GERALDTON      CLEAR     23  23 100 E3        30.30R
THUNDER BAY    MOCLDY    32  30  93 VRB2      30.30
SIOUX LOOKOUT  CLOUDY    36  32  87 S10       30.21R
TORONTO        CLOUDY    52  48  87 N10       29.84
BIG TROUT LK   CLOUDY    36  32  87 S14G22    30.14F
PICKLE LAKE    CLOUDY    34  30  86 S7        30.21S
DRYDEN         CLOUDY    37  34  87 S15       30.18R
KENORA         MOCLDY    39  36  87 S12       30.14S
$$
                *** MANITOBA***

CITY           SKY/WX    TMP DP  RH WIND       PRES   REMARKS
BRANDON        CLEAR     43  39  87 E9        29.88F
DAUPHIN        CLEAR     55  39  54 SW3       29.80F
ISLAND LAKE    MOCLDY    39  36  87 S14       29.98
PILOT MOUND      N/A     39  36  87 SE15        N/A
THE PAS        PTCLDY    41  39  93 SE14      29.66F
THOMPSON       CLOUDY    39  37  93 S7        29.73
WINNIPEG       CLEAR     39  36  87 SE14      30.02
LYNN LAKE      CLOUDY    41  39  93 S8        29.62F
CHURCHILL      CLOUDY    36  32  87 S10       29.75F
GILLAM         CLOUDY    37  34  87 S10G17    29.83F
$$
                ***SASKATCHEWAN***

CITY           SKY/WX    TMP DP  RH WIND       PRES   REMARKS
ESTEVAN        PTCLDY    39  36  87 E10       29.76S
KINDERSLEY     CLEAR     43  34  70 S9        29.61
LLOYDMINSTER   MOCLDY    43  34  70 SW6       29.51
PRINCE ALBERT  PTCLDY    30  30 100 E6        29.57  WCI  24
REGINA         CLEAR     41  39  93 SE14      29.69F
YORKTON        CLEAR     43  36  75 S15G22    29.73S
N. BATTLEFORD  CLEAR     54  34  47 SW8G18    29.56S
LA RONGE       PTCLDY    34  32  93 NE5       29.54F
SASKATOON      PTCLDY    43  39  87 S8        29.61S
SWIFT CURRENT  CLEAR     46  37  71 SW10      29.64F
$$
NOTE: THESE ARE AUTOMATED STATIONS WITH LIMITED QUALITY CONTROL
      "FAIR" INDICATES FEW OR NO CLOUDS BELOW 12,000 FEET WITH NO
      SIGNIFICANT WEATHER AND/OR OBSTRUCTIONS TO VISIBILITY.
      SKY/WX - SKY CONDITION AND SIGNIFICANT WEATHER.
      TMP - AIR TEMPERATURE.    DP   - DEWPOINT TEMPERATURE.
      RH  - RELATIVE HUMIDITY.  PRES - PRESSURE.
      HX  - HEAT INDEX.         WCI  - WIND CHILL INDEX.
$



USA.gov is the U.S. government's official web portal to all federal, state and local government web resources and services.